GW1554 Weather Reports


Display with metric or nautical units.
time (UTC)temp
F
wind
direction
speed
MPH
gust
MPH
rain 1hr
in
rain 24hr
in
rain mn
in
humidity
%
barometer
mb
20260507214604 56 268 1.0 6.0 0.00 0.00 0.00 74 1015.3
20260507213048 55 278 0.0 3.0 0.00 0.00 0.00 77 1015.1
20260507211546 55 283 0.0 2.0 0.00 0.00 0.00 76 1015.2
20260507210051 56 41 1.0 6.0 0.00 0.00 0.00 74 1014.9
20260507204540 56 353 1.0 4.0 0.00 0.00 0.00 75 1015.0
20260507203048 56 344 3.0 7.0 0.00 0.00 0.00 77 1014.9
20260507201543 55 330 0.0 0.0 0.00 0.00 0.00 85 1014.8
20260507200039 55 20 0.0 0.0 0.00 0.00 0.00 85 1014.8
20260507194605 55 357 0.0 3.0 0.00 0.00 0.00 83 1014.8
20260507193035 55 11 0.0 5.0 0.00 0.00 0.00 82 1014.7
20260507191537 56 321 1.0 4.0 0.00 0.00 0.00 84 1014.6
20260507190033 57 207 0.0 0.0 0.00 0.00 0.00 85 1014.3
20260507184534 57 349 0.0 0.0 0.00 0.00 0.00 82 1014.3
20260507183035 58 352 0.0 0.0 0.00 0.00 0.00 78 1014.0
20260507181529 59 339 0.0 2.0 0.00 0.00 0.00 78 1014.0
20260507180031 60 347 1.0 3.0 0.00 0.00 0.00 75 1014.1
20260507174536 62 56 0.0 0.0 0.00 0.00 0.00 74 1013.9
20260507173035 62 98 0.0 3.0 0.00 0.00 0.00 75 1013.7
20260507171527 62 12 1.0 3.0 0.00 0.00 0.00 74 1013.7
20260507170027 62 231 0.0 5.0 0.00 0.00 0.00 74 1013.8
20260507164526 62 152 2.0 5.0 0.00 0.00 0.00 71 1013.9
20260507163026 63 135 2.0 5.0 0.00 0.00 0.00 69 1013.9
20260507161531 64 118 2.0 5.0 0.00 0.00 0.00 68 1013.7
20260507160026 63 12 2.0 6.0 0.00 0.00 0.00 68 1013.7
20260507154531 62 133 4.0 9.0 0.00 0.00 0.00 70 1013.7
20260507153036 63 148 2.0 10.0 0.00 0.00 0.00 69 1013.6
20260507151524 64 122 2.0 6.0 0.00 0.00 0.00 69 1013.6
20260507150026 62 326 4.0 10.0 0.00 0.00 0.00 73 1013.7
20260507144521 62 198 4.0 12.0 0.00 0.00 0.00 74 1013.9
20260507143024 63 99 6.0 15.0 0.00 0.00 0.00 72 1013.8
20260507141520 64 188 4.0 13.0 0.00 0.00 0.00 68 1013.8
20260507140018 65 107 1.0 9.0 0.00 0.00 0.00 64 1013.9
20260507134518 64 92 5.0 9.0 0.00 0.00 0.00 61 1014.0
20260507133019 64 152 3.0 9.0 0.00 0.00 0.00 65 1014.2
20260507131519 64 148 4.0 9.0 0.00 0.00 0.00 62 1014.2
20260507130027 65 148 5.0 13.0 0.00 0.00 0.00 61 1014.4
20260507124520 65 136 3.0 12.0 0.00 0.00 0.00 63 1014.2
20260507123013 64 160 2.0 12.0 0.00 0.00 0.00 64 1014.0
20260507121511 64 79 4.0 10.0 0.00 0.00 0.00 64 1014.0
20260507120019 64 186 5.0 15.0 0.00 0.00 0.00 65 1013.9
20260507114510 63 153 7.0 11.0 0.00 0.00 0.00 68 1013.7
20260507113009 64 283 4.0 14.0 0.00 0.00 0.00 70 1013.8
20260507111507 63 135 3.0 11.0 0.00 0.00 0.00 72 1013.9
20260507110008 63 130 6.0 12.0 0.00 0.00 0.00 73 1014.0
20260507104506 63 129 5.0 12.0 0.00 0.00 0.00 75 1014.1
20260507103015 63 146 2.0 9.0 0.00 0.00 0.00 76 1014.1
20260507101506 62 214 3.0 10.0 0.00 0.00 0.00 77 1014.2
20260507100005 63 139 2.0 7.0 0.00 0.00 0.00 75 1014.2
20260507094502 63 147 0.0 6.0 0.00 0.00 0.00 75 1014.2
20260507093113 63 254 0.0 5.0 0.00 0.00 0.00 76 1014.1
20260507091559 62 132 3.0 10.0 0.00 0.00 0.00 76 1014.0
20260507090058 62 93 3.0 13.0 0.00 0.00 0.00 76 1014.0
20260507084556 62 98 2.0 10.0 0.00 0.00 0.00 73 1013.9
20260507083055 61 199 3.0 7.0 0.00 0.00 0.00 73 1013.7
20260507081554 61 176 2.0 6.0 0.00 0.00 0.00 71 1013.8
20260507080107 61 136 0.0 5.0 0.00 0.00 0.00 68 1013.7
20260507074553 60 132 3.0 7.0 0.00 0.00 0.00 64 1013.8
20260507073052 60 87 2.0 5.0 0.00 0.00 0.00 66 1013.7
20260507071607 60 108 0.0 6.0 0.00 0.00 0.00 63 1013.6
20260507070051 60 120 1.0 4.0 0.00 0.00 0.00 64 1013.3
20260507064549 60 136 1.0 3.0 0.00 0.04 0.00 60 1013.2
20260507063047 60 115 3.0 5.0 0.00 0.04 0.00 64 1013.2
20260507061543 61 127 0.0 0.0 0.00 0.04 0.00 65 1012.8
20260507060039 58 16 0.0 0.0 0.00 0.04 0.00 67 1012.8
20260507054535 58 18 0.0 0.0 0.00 0.04 0.00 66 1012.5
20260507053052 57 25 0.0 3.0 0.00 0.04 0.00 67 1012.5
20260507051538 56 347 0.0 5.0 0.00 0.04 0.00 66 1012.2
20260507050032 55 30 3.0 8.0 0.00 0.04 0.00 66 1012.1
20260507044527 54 5 1.0 7.0 0.00 0.04 0.00 66 1012.0
20260507043025 53 328 1.0 5.0 0.00 0.04 0.00 67 1011.9
20260507041524 53 297 1.0 3.0 0.00 0.04 0.00 67 1011.8
20260507040025 53 342 0.0 3.0 0.00 0.04 0.00 66 1011.7
20260507034532 54 347 1.0 3.0 0.00 0.14 0.00 66 1011.7
20260507033033 53 6 1.0 4.0 0.00 0.14 0.00 66 1011.7
20260507031517 54 307 1.0 7.0 0.00 0.14 0.00 66 1011.6
20260507030020 54 309 3.0 8.0 0.00 0.14 0.00 66 1011.6
20260507024515 54 300 0.0 2.0 0.00 0.37 0.00 67 1011.7
20260507023023 54 302 0.0 4.0 0.00 0.37 0.00 66 1011.7
20260507021512 54 5 1.0 7.0 0.00 0.37 0.00 67 1011.6
20260507020018 54 13 3.0 8.0 0.00 0.37 0.00 68 1011.4
20260507014513 53 340 0.0 3.0 0.00 0.39 0.00 71 1011.5
20260507013009 54 354 2.0 4.0 0.00 0.39 0.00 70 1011.4
20260507011507 55 45 0.0 2.0 0.00 0.39 0.00 70 1011.4
20260507010010 54 322 0.0 3.0 0.00 0.39 0.00 71 1011.5
20260507004505 55 327 0.0 3.0 0.00 0.41 0.00 72 1011.5
20260507003004 55 224 0.0 5.0 0.00 0.41 0.00 72 1011.4
20260507001605 55 355 2.0 5.0 0.00 0.41 0.00 72 1011.4
20260507000002 55 350 0.0 3.0 0.00 0.48 0.00 72 1011.4
20260506234600 56 218 0.0 1.0 0.00 0.48 0.00 71 1011.5
20260506233100 56 345 0.0 4.0 0.00 0.48 0.00 70 1011.3
20260506231602 57 65 0.0 3.0 0.00 0.48 0.00 67 1011.4
20260506230058 57 49 0.0 0.0 0.00 0.48 0.00 70 1011.5
20260506224556 56 65 0.0 4.0 0.00 0.83 0.00 71 1011.5
20260506223055 56 96 0.0 2.0 0.00 0.83 0.00 69 1011.3
20260506221552 56 294 0.0 5.0 0.00 0.83 0.00 70 1011.2
20260506220049 57 262 0.0 3.0 0.00 0.83 0.00 68 1011.2